TimeCST,TemperatureF,Dew PointF,Humidity,Sea Level PressureIn,VisibilityMPH,Wind Direction,Wind SpeedMPH,Gust SpeedMPH,PrecipitationIn,Events,Conditions,WindDirDegrees,DateUTC
12:15 AM,43.9,42.1,93,29.94,10.0,West,15.0,-,0.02,Rain,Rain,280,2012-11-12 06:15:00
12:35 AM,41.0,39.2,93,29.96,7.0,West,19.6,24.2,N/A,Rain,Light Rain,270,2012-11-12 06:35:00
12:55 AM,39.7,37.9,93,29.96,7.0,West,9.2,-,0.06,Rain,Rain,260,2012-11-12 06:55:00
1:15 AM,39.0,36.7,91,29.95,7.0,West,15.0,-,0.03,Rain,Light Rain,260,2012-11-12 07:15:00
1:35 AM,38.3,36.0,91,29.95,10.0,West,16.1,-,0.05,Rain,Light Rain,270,2012-11-12 07:35:00
1:55 AM,37.4,35.6,93,29.99,10.0,West,17.3,-,N/A,Rain,Rain,270,2012-11-12 07:55:00
2:15 AM,36.7,34.2,91,29.98,10.0,West,12.7,24.2,0.01,Rain,Light Rain,280,2012-11-12 08:15:00
2:35 AM,36.3,33.8,91,29.97,10.0,West,13.8,-,0.01,,Overcast,270,2012-11-12 08:35:00
2:55 AM,36.1,33.8,91,29.98,7.0,West,13.8,-,0.01,,Overcast,270,2012-11-12 08:55:00
3:15 AM,36.0,33.8,92,30.01,7.0,West,16.1,21.9,N/A,Rain,Light Rain,260,2012-11-12 09:15:00
3:35 AM,35.1,32.4,90,29.98,7.0,West,15.0,20.7,N/A,Snow,Light Snow,270,2012-11-12 09:35:00
3:55 AM,34.7,32.0,90,30.00,5.0,West,15.0,25.3,N/A,Snow,Light Snow,260,2012-11-12 09:55:00
4:15 AM,34.0,31.5,90,30.02,10.0,West,18.4,21.9,N/A,,Overcast,260,2012-11-12 10:15:00
4:35 AM,33.1,30.2,89,30.02,10.0,West,17.3,24.2,N/A,,Overcast,260,2012-11-12 10:35:00
4:55 AM,33.8,28.4,81,30.03,10.0,West,11.5,23.0,N/A,,Overcast,270,2012-11-12 10:55:00
5:15 AM,32.7,28.2,83,30.02,10.0,West,16.1,24.2,N/A,,Overcast,280,2012-11-12 11:15:00
5:35 AM,32.5,28.6,85,30.03,10.0,West,16.1,20.7,N/A,,Overcast,270,2012-11-12 11:35:00
6:15 AM,31.8,26.1,79,30.04,10.0,West,15.0,26.5,N/A,,Overcast,280,2012-11-12 12:15:00
6:35 AM,31.1,25.3,79,30.06,10.0,West,15.0,23.0,N/A,,Overcast,280,2012-11-12 12:35:00
6:55 AM,30.2,24.8,80,30.08,10.0,West,16.1,21.9,N/A,,Overcast,270,2012-11-12 12:55:00
7:15 AM,30.0,23.9,78,30.08,10.0,West,13.8,20.7,N/A,,Overcast,260,2012-11-12 13:15:00
7:35 AM,29.8,23.9,79,30.11,10.0,WSW,16.1,21.9,N/A,,Overcast,250,2012-11-12 13:35:00
7:55 AM,29.5,22.3,75,30.11,10.0,West,17.3,-,N/A,,Scattered Clouds,260,2012-11-12 13:55:00
8:15 AM,29.7,21.0,70,30.11,10.0,West,18.4,24.2,N/A,,Clear,280,2012-11-12 14:15:00
8:35 AM,30.2,22.8,74,30.12,10.0,WSW,18.4,27.6,N/A,,Scattered Clouds,250,2012-11-12 14:35:00
8:55 AM,30.6,23.0,74,30.12,10.0,WSW,17.3,24.2,N/A,,Scattered Clouds,250,2012-11-12 14:55:00
9:15 AM,31.1,22.6,71,30.13,10.0,WSW,19.6,24.2,N/A,,Scattered Clouds,250,2012-11-12 15:15:00
9:35 AM,31.3,23.0,71,30.13,10.0,West,16.1,23.0,N/A,,Scattered Clouds,260,2012-11-12 15:35:00
9:55 AM,32.0,22.3,67,30.13,10.0,West,18.4,-,N/A,,Clear,260,2012-11-12 15:55:00
10:15 AM,32.0,21.9,66,30.14,10.0,West,16.1,27.6,N/A,,Clear,260,2012-11-12 16:15:00
10:35 AM,32.2,23.0,69,30.15,10.0,WSW,20.7,26.5,N/A,,Scattered Clouds,250,2012-11-12 16:35:00
10:55 AM,32.0,22.1,67,30.15,10.0,WSW,18.4,29.9,N/A,,Scattered Clouds,250,2012-11-12 16:55:00
11:15 AM,32.7,22.3,65,30.14,10.0,WSW,18.4,24.2,N/A,,Scattered Clouds,240,2012-11-12 17:15:00
11:35 AM,32.9,21.9,64,30.14,10.0,WSW,20.7,25.3,N/A,,Clear,240,2012-11-12 17:35:00
11:55 AM,34.0,22.1,62,30.14,10.0,West,21.9,27.6,N/A,,Clear,270,2012-11-12 17:55:00
12:15 PM,34.0,20.7,58,30.14,10.0,WSW,20.7,31.1,N/A,,Clear,250,2012-11-12 18:15:00
12:35 PM,34.3,20.3,57,30.13,10.0,WSW,20.7,25.3,N/A,,Clear,250,2012-11-12 18:35:00
12:55 PM,35.1,20.7,56,30.14,10.0,WSW,20.7,26.5,N/A,,Clear,250,2012-11-12 18:55:00
1:15 PM,35.1,21.0,57,30.14,10.0,WSW,20.7,25.3,N/A,,Scattered Clouds,250,2012-11-12 19:15:00
1:35 PM,35.6,20.3,54,30.15,10.0,West,19.6,27.6,N/A,,Scattered Clouds,260,2012-11-12 19:35:00
1:55 PM,34.9,21.0,57,30.16,10.0,West,18.4,25.3,N/A,,Scattered Clouds,260,2012-11-12 19:55:00
2:15 PM,34.2,21.6,60,30.16,10.0,West,16.1,24.2,N/A,,Mostly Cloudy,260,2012-11-12 20:15:00
2:35 PM,36.0,21.0,55,30.16,10.0,WSW,19.6,24.2,N/A,,Mostly Cloudy,250,2012-11-12 20:35:00
2:55 PM,34.9,20.3,55,30.16,10.0,West,17.3,25.3,N/A,,Scattered Clouds,260,2012-11-12 20:55:00
3:15 PM,35.6,20.7,55,30.17,10.0,WSW,16.1,25.3,N/A,,Mostly Cloudy,250,2012-11-12 21:15:00
3:35 PM,34.3,20.5,57,30.19,10.0,WSW,16.1,26.5,N/A,,Overcast,240,2012-11-12 21:35:00
3:55 PM,34.0,20.8,59,30.19,10.0,WSW,18.4,23.0,N/A,,Overcast,250,2012-11-12 21:55:00
4:15 PM,34.0,20.3,57,30.20,10.0,West,16.1,23.0,N/A,,Overcast,260,2012-11-12 22:15:00
4:35 PM,34.2,20.5,57,30.21,10.0,West,20.7,25.3,N/A,,Overcast,260,2012-11-12 22:35:00
4:55 PM,34.2,21.0,59,30.22,10.0,WSW,15.0,-,N/A,,Overcast,250,2012-11-12 22:55:00
5:15 PM,34.3,21.6,60,30.23,10.0,West,16.1,21.9,N/A,,Overcast,260,2012-11-12 23:15:00
5:35 PM,34.7,20.8,57,30.24,10.0,West,18.4,21.9,N/A,,Overcast,260,2012-11-12 23:35:00
5:55 PM,34.3,21.2,59,30.24,10.0,West,12.7,-,N/A,,Overcast,260,2012-11-12 23:55:00
6:15 PM,34.7,21.0,57,30.24,10.0,West,17.3,24.2,N/A,,Overcast,260,2012-11-13 00:15:00
6:35 PM,34.7,21.2,58,30.25,10.0,West,12.7,20.7,N/A,,Overcast,260,2012-11-13 00:35:00
6:55 PM,33.8,21.2,60,30.26,10.0,West,16.1,27.6,N/A,,Overcast,260,2012-11-13 00:55:00
7:15 PM,34.2,22.1,61,30.26,10.0,West,13.8,24.2,N/A,,Overcast,270,2012-11-13 01:15:00
7:35 PM,34.2,22.1,61,30.27,10.0,West,15.0,29.9,N/A,,Overcast,280,2012-11-13 01:35:00
7:55 PM,33.8,21.2,60,30.28,10.0,West,13.8,25.3,N/A,,Overcast,270,2012-11-13 01:55:00
8:15 PM,33.8,21.9,62,30.28,10.0,West,11.5,23.0,N/A,,Overcast,270,2012-11-13 02:15:00
8:35 PM,33.8,22.3,63,30.29,10.0,West,13.8,-,N/A,,Overcast,270,2012-11-13 02:35:00
8:55 PM,33.8,22.1,62,30.29,10.0,West,12.7,18.4,N/A,,Overcast,270,2012-11-13 02:55:00
9:15 PM,33.8,22.1,62,30.30,10.0,West,12.7,19.6,N/A,,Overcast,270,2012-11-13 03:15:00
9:35 PM,33.8,22.5,63,30.31,10.0,West,16.1,20.7,N/A,,Overcast,270,2012-11-13 03:35:00
9:55 PM,33.8,22.5,63,30.31,10.0,West,12.7,18.4,N/A,,Overcast,260,2012-11-13 03:55:00
10:15 PM,33.8,22.6,64,30.31,10.0,West,13.8,-,N/A,,Overcast,260,2012-11-13 04:15:00
10:35 PM,34.0,22.3,62,30.32,10.0,West,17.3,23.0,N/A,,Overcast,260,2012-11-13 04:35:00
10:55 PM,33.8,22.1,62,30.32,10.0,West,13.8,19.6,N/A,,Overcast,270,2012-11-13 04:55:00
11:15 PM,34.0,21.9,61,30.32,10.0,West,12.7,19.6,N/A,,Overcast,270,2012-11-13 05:15:00
11:35 PM,34.0,21.2,60,30.33,10.0,West,19.6,26.5,N/A,,Overcast,280,2012-11-13 05:35:00
11:55 PM,33.4,21.9,63,30.33,10.0,West,12.7,17.3,N/A,,Overcast,280,2012-11-13 05:55:00